Location: Gorze? G�rny
(49.8500°N, 19.5000°E)
Time: 12:46:49
(UTC+00:00)

SJ 16-02 - Pass Details

Date: 13 May 2021
Orbit: 606 x 616 km, 75.0° (Epoch: 22 June)

Event Time Altitude Azimuth Distance (km) Brightness Sun altitude
Rises 21:49:02 0° 257° (WSW) 2,885 4.8 -20.7°
Reaches altitude 10° 21:52:25 10° 284° (WNW) 1,985 4.3 -20.8°
Maximum altitude 21:54:35 13° 314° (NW) 1,773 4.4 -20.9°
Drops below altitude 10° 21:56:47 10° 343° (NNW) 1,990 5.1 -20.9°
Sets 22:00:11 0° 11° (N) 2,900 6.0 -21.0°
